Location: Rounton
(54.4000°N, 1.3500°W)
Time: 12:35:28
(UTC+00:00)

Transit 2A - Pass Details

Date: 06 December 2021
Orbit: 591 x 967 km, 66.7° (Epoch: 17 January)

Event Time Altitude Azimuth Distance (km) Brightness Sun altitude
Rises 22:38:44 0° 175° (S) 3,342 - -55.0°
Reaches altitude 10° 22:41:27 10° 163° (SSE) 2,475 - -55.2°
Maximum altitude 22:46:06 26° 109° (ESE) 1,711 - -55.5°
Drops below altitude 10° 22:51:02 10° 56° (ENE) 2,655 - -55.9°
Sets 22:54:03 0° 45° (NE) 3,637 - -56.1°
